STARLINK-1046, 44751

Orbit data source: Space-Track

STARLINK-1046, 44751 is a payload satellite owned by SpaceX/Seattle (US) in LEO that was launched on Mon, 11 Nov 2019 UTC via an FALCON 9 launch vehicle from the Air Force Eastern Test Range (AFETR). Payload-class satellites include a variety of spacecraft equipped with specific instruments for various scientific and technological missions. These include communications satellites like Starlink; space stations such as the ISS; scientific satellites like the Hubble; Earth observation satellites from companies like Planet Labs, Umbra, and HawkEye 360; GPS; miniature CubeSats for education and research; and military/defense satellites.

Loading next visibility...
Identifier
44751, 2019-074AQ
Orbit
LEO
Country
Flag of USUS
Related business
Manufacturer
SpaceX/Seattle
Mission
Partially operational Commercial Communications
Bus & Motor
STARLINK, Unknown motor
Mass
260 kg wet, ~248 kg dry
Launch date (UTC)
2019-11-11 (6 years ago)
Launch vehicle
FALCON 9
Launch site
Air Force Eastern Test Range (AFETR)
Object type
Payload
Rocket body
Debris
Shape & HBR
Box + 1 Pan, 10.1 m
Radar Cross Section
13.562 m², Large (>1 m²)

Expand to show TLE details & history
Last TLE update: 15 hours ago

TLE from 15 hours ago
0 STARLINK-1046
1 44751U 19074AQ  26118.88355184  .00081047  00000-0  14155-2 0  9990
2 44751  53.0499 331.2141 0002364 324.9553  35.1299 15.49994096356182
Epoch: 2026-04-28T21:12Z
TLE epoch observation values (Epoch: 2026-04-28T21:12:18.878Z)
Latitude
-0.00005°
Longitude
156.28293°
Altitude
416.325 km
Speed
7.663 km/s
True Right ascension
22h 04m 51s
True Declination
0° 00' 00"
Sunlit
Object was in daylight at epoch
Visualization orbit readout
Latitude
Unknown
Longitude
Unknown
Altitude
Unknown
Speed
Unknown
Apparent Right ascension
Unknown
Apparent Declination
Unknown
Sunlit
N/A
Visualization observer readout
Local Sidereal Time
19:24:07
Azimuth
Unknown
Elevation
Unknown
Doppler factor
Unknown
Orbital elements
Apogee altitude
418.626 km
Perigee altitude
415.413 km
Semi-major axis
6,795.157 km
Eccentricity
0.00024
Inclination
53.0499°
RAAN
331.2141°
Arg. of periapsis
324.9553°
True anomaly
35.14549°
Mean anomaly
35.1299°
Eccentric anomaly
35.1377°
Mean motion
3.87475 °/min
Orbital period
92.91 mins
BSTAR
0.0014155
Loading maneuver chart data...
Computing Atmospheric mass density...
Loading historical data...
Loading historical data...
Loading historical data...
Loading historical data...
Loading historical data...
Loading historical data...
Loading historical data...

Documentation

Showing up to 5 results
|